ProjectID,Date,Electric Generation,Electric Utility Import,Facility Electric Load
,YYYY-MM-DD,kW,kW,kW
325,2016-02-01,0.0,,0.0
325,2016-02-02,0.0,,0.0
325,2016-02-03,0.0,,0.0
325,2016-02-04,0.0,,0.0
325,2016-02-05,0.0,,0.0
325,2016-02-06,0.0,,0.0
325,2016-02-07,0.0,,0.0
325,2016-02-08,0.0,,0.0
325,2016-02-09,0.0,,0.0
325,2016-02-10,0.0,,0.0
325,2016-02-11,0.0,,0.0
325,2016-02-12,0.0,,0.0
325,2016-02-13,0.0,,0.0
325,2016-02-14,0.0,,0.0
325,2016-02-15,0.0,,0.0
325,2016-02-16,0.0,,0.0
325,2016-02-17,0.0,,0.0
325,2016-02-18,0.0,,0.0
325,2016-02-19,0.0,,0.0
325,2016-02-20,0.0,,0.0
325,2016-02-21,0.0,,0.0
325,2016-02-22,0.0,,0.0
325,2016-02-23,0.0,,0.0
325,2016-02-24,0.6666666666666666,,0.6666666666666666
325,2016-02-25,0.0,,0.0
325,2016-02-26,0.0,,0.0
325,2016-02-27,0.0,,0.0
325,2016-02-28,0.0,,0.0
325,2016-02-29,26.291666666666668,,26.291666666666668
325,2016-03-01,26.583333333333332,,26.583333333333332
325,2016-03-02,10.833333333333334,,10.833333333333334
325,2016-03-03,8.625,,8.625
325,2016-03-04,34.125,,34.125
325,2016-03-05,36.0,,36.0
325,2016-03-06,78.08333333333333,,78.08333333333333
325,2016-03-07,32.5,,32.5
325,2016-03-08,42.083333333333336,,42.083333333333336
325,2016-03-09,50.375,,50.375
325,2016-03-10,7.166666666666667,,7.166666666666667
325,2016-03-11,34.625,,34.625
325,2016-03-12,76.54166666666667,,76.54166666666667
325,2016-03-13,44.166666666666664,,44.166666666666664
325,2016-03-14,30.25,,30.25
325,2016-03-15,8.791666666666666,,8.791666666666666
325,2016-03-16,23.708333333333332,,23.708333333333332
325,2016-03-17,64.16666666666667,,64.16666666666667
325,2016-03-18,16.125,,16.125
325,2016-03-19,93.625,,93.625
325,2016-03-20,79.20833333333333,,79.20833333333333
325,2016-03-21,51.958333333333336,,51.958333333333336
325,2016-03-22,54.25,,54.25
325,2016-03-23,4.833333333333333,,4.833333333333333
325,2016-03-24,22.25,,22.25
325,2016-03-25,14.375,,14.375
325,2016-03-26,85.29166666666667,,85.29166666666667
325,2016-03-27,87.375,,87.375
325,2016-03-28,18.541666666666668,,18.541666666666668
325,2016-03-29,98.08333333333333,,98.08333333333333
325,2016-03-30,90.91666666666667,,90.91666666666667
325,2016-03-31,14.333333333333334,,14.333333333333334
325,2016-04-01,52.75,,52.75
325,2016-04-02,63.208333333333336,,63.208333333333336
325,2016-04-03,48.458333333333336,,48.458333333333336
325,2016-04-04,0.041666666666666664,,0.041666666666666664
325,2016-04-05,8.5,,8.5
325,2016-04-06,12.083333333333334,,12.083333333333334
325,2016-04-07,34.083333333333336,,34.083333333333336
325,2016-04-08,48.416666666666664,,48.416666666666664
325,2016-04-09,71.625,,71.625
325,2016-04-10,65.79166666666667,,65.79166666666667
325,2016-04-11,11.625,,11.625
325,2016-04-12,44.083333333333336,,44.083333333333336
325,2016-04-13,92.33333333333333,,92.33333333333333
325,2016-04-14,111.83333333333333,,111.83333333333333
325,2016-04-15,108.58333333333333,,108.58333333333333
325,2016-04-16,107.95833333333333,,107.95833333333333
325,2016-04-17,108.20833333333333,,108.20833333333333
325,2016-04-18,105.375,,105.375
325,2016-04-19,99.33333333333333,,99.33333333333333
325,2016-04-20,112.875,,112.875
325,2016-04-21,65.20833333333333,,65.20833333333333
325,2016-04-22,60.625,,60.625
325,2016-04-23,88.0,,88.0
325,2016-04-24,96.16666666666667,,96.16666666666667
325,2016-04-25,54.166666666666664,,54.166666666666664
325,2016-04-26,18.125,,18.125
325,2016-04-27,115.875,,115.875
325,2016-04-28,76.0,,76.0
325,2016-04-29,40.291666666666664,,40.291666666666664
325,2016-04-30,89.45833333333333,,89.45833333333333
325,2016-05-01,21.5,,21.5
325,2016-05-02,20.833333333333332,,20.833333333333332
325,2016-05-03,50.333333333333336,,50.333333333333336
325,2016-05-04,88.04166666666667,,88.04166666666667
325,2016-05-05,95.83333333333333,,95.83333333333333
325,2016-05-06,55.0,,55.0
325,2016-05-07,87.04166666666667,,87.04166666666667
325,2016-05-08,79.95833333333333,,79.95833333333333
325,2016-05-09,99.08333333333333,,99.08333333333333
325,2016-05-10,109.91666666666667,,109.91666666666667
325,2016-05-11,94.625,,94.625
325,2016-05-12,92.54166666666667,,92.54166666666667
325,2016-05-13,70.79166666666667,,70.79166666666667
325,2016-05-14,36.458333333333336,,36.458333333333336
325,2016-05-15,49.625,,49.625
325,2016-05-16,113.75,,113.75
325,2016-05-17,63.375,,63.375
325,2016-05-18,110.875,,110.875
325,2016-05-19,92.29166666666667,,92.29166666666667
325,2016-05-20,110.83333333333333,,110.83333333333333
325,2016-05-21,37.75,,37.75
325,2016-05-22,105.70833333333333,,105.70833333333333
325,2016-05-23,115.95833333333333,,115.95833333333333
325,2016-05-24,110.45833333333333,,110.45833333333333
325,2016-05-25,88.54166666666667,,88.54166666666667
325,2016-05-26,62.0,,62.0
325,2016-05-27,86.45833333333333,,86.45833333333333
325,2016-05-28,81.0,,81.0
325,2016-05-29,65.91666666666667,,65.91666666666667
325,2016-05-30,113.125,,113.125
325,2016-05-31,105.83333333333333,,105.83333333333333
325,2016-06-01,110.58333333333333,,110.58333333333333
325,2016-06-02,57.125,,57.125
325,2016-06-03,113.95833333333333,,113.95833333333333
325,2016-06-04,105.08333333333333,,105.08333333333333
325,2016-06-05,36.791666666666664,,36.791666666666664
325,2016-06-06,102.0,,102.0
325,2016-06-07,60.5,,60.5
325,2016-06-08,37.166666666666664,,37.166666666666664
325,2016-06-09,121.20833333333333,,121.20833333333333
325,2016-06-10,113.20833333333333,,113.20833333333333
325,2016-06-11,84.41666666666667,,84.41666666666667
325,2016-06-12,88.75,,88.75
325,2016-06-13,43.625,,43.625
325,2016-06-14,120.95833333333333,,120.95833333333333
325,2016-06-15,103.29166666666667,,103.29166666666667
325,2016-06-16,91.66666666666667,,91.66666666666667
325,2016-06-17,116.83333333333333,,116.83333333333333
325,2016-06-18,112.0,,112.0
325,2016-06-19,111.08333333333333,,111.08333333333333
325,2016-06-20,97.04166666666667,,97.04166666666667
325,2016-06-21,113.0,,113.0
325,2016-06-22,114.95833333333333,,114.95833333333333
325,2016-06-23,97.625,,97.625
325,2016-06-24,111.04166666666667,,111.04166666666667
325,2016-06-25,103.625,,103.625
325,2016-06-26,105.20833333333333,,105.20833333333333
325,2016-06-27,99.25,,99.25
325,2016-06-28,85.20833333333333,,85.20833333333333
325,2016-06-29,74.125,,74.125
325,2016-06-30,104.91666666666667,,104.91666666666667
325,2016-07-01,57.083333333333336,,57.083333333333336
325,2016-07-02,103.625,,103.625
325,2016-07-03,99.91666666666667,,99.91666666666667
325,2016-07-04,109.125,,109.125
325,2016-07-05,89.54166666666667,,89.54166666666667
325,2016-07-06,93.875,,93.875
325,2016-07-07,83.33333333333333,,83.33333333333333
325,2016-07-08,55.666666666666664,,55.666666666666664
325,2016-07-09,77.79166666666667,,77.79166666666667
325,2016-07-10,79.45833333333333,,79.45833333333333
325,2016-07-11,100.75,,100.75
325,2016-07-12,83.54166666666667,,83.54166666666667
325,2016-07-13,91.95833333333333,,91.95833333333333
325,2016-07-14,86.91666666666667,,86.91666666666667
325,2016-07-15,97.625,,97.625
325,2016-07-16,85.5,,85.5
325,2016-07-17,84.91666666666667,,84.91666666666667
325,2016-07-18,66.45833333333333,,66.45833333333333
325,2016-07-19,94.58333333333333,,94.58333333333333
325,2016-07-20,109.08333333333333,,109.08333333333333
325,2016-07-21,102.66666666666667,,102.66666666666667
325,2016-07-22,75.25,,75.25
325,2016-07-23,106.54166666666667,,106.54166666666667
325,2016-07-24,72.58333333333333,,72.58333333333333
325,2016-07-25,35.166666666666664,,35.166666666666664
325,2016-07-26,83.79166666666667,,83.79166666666667
325,2016-07-27,99.41666666666667,,99.41666666666667
325,2016-07-28,72.625,,72.625
325,2016-07-29,97.33333333333333,,97.33333333333333
325,2016-07-30,65.04166666666667,,65.04166666666667
325,2016-07-31,64.95833333333333,,64.95833333333333
325,2016-08-01,71.125,,71.125
325,2016-08-02,109.20833333333333,,109.20833333333333
325,2016-08-03,86.29166666666667,,86.29166666666667
325,2016-08-04,102.58333333333333,,102.58333333333333
325,2016-08-05,76.375,,76.375
325,2016-08-06,76.16666666666667,,76.16666666666667
325,2016-08-07,85.91666666666667,,85.91666666666667
325,2016-08-08,108.58333333333333,,108.58333333333333
325,2016-08-09,97.91666666666667,,97.91666666666667
325,2016-08-10,85.83333333333333,,85.83333333333333
325,2016-08-11,74.75,,74.75
325,2016-08-12,77.04166666666667,,77.04166666666667
325,2016-08-13,48.791666666666664,,48.791666666666664
325,2016-08-14,52.5,,52.5
325,2016-08-15,62.875,,62.875
325,2016-08-16,38.083333333333336,,38.083333333333336
325,2016-08-17,82.625,,82.625
325,2016-08-18,71.375,,71.375
325,2016-08-19,85.33333333333333,,85.33333333333333
325,2016-08-20,76.41666666666667,,76.41666666666667
325,2016-08-21,44.125,,44.125
325,2016-08-22,95.125,,95.125
325,2016-08-23,93.70833333333333,,93.70833333333333
325,2016-08-24,98.875,,98.875
325,2016-08-25,64.66666666666667,,64.66666666666667
325,2016-08-26,82.125,,82.125
325,2016-08-27,95.91666666666667,,95.91666666666667
325,2016-08-28,85.45833333333333,,85.45833333333333
325,2016-08-29,84.91666666666667,,84.91666666666667
325,2016-08-30,93.58333333333333,,93.58333333333333
325,2016-08-31,45.041666666666664,,45.041666666666664
325,2016-09-01,77.875,,77.875
325,2016-09-02,84.29166666666667,,84.29166666666667
325,2016-09-03,99.29166666666667,,99.29166666666667
325,2016-09-04,94.66666666666667,,94.66666666666667
325,2016-09-05,94.125,,94.125
325,2016-09-06,89.54166666666667,,89.54166666666667
325,2016-09-07,58.708333333333336,,58.708333333333336
325,2016-09-08,48.791666666666664,,48.791666666666664
325,2016-09-09,51.375,,51.375
325,2016-09-10,63.166666666666664,,63.166666666666664
325,2016-09-11,68.5,,68.5
325,2016-09-12,77.95833333333333,,77.95833333333333
325,2016-09-13,75.83333333333333,,75.83333333333333
325,2016-09-14,45.666666666666664,,45.666666666666664
325,2016-09-15,68.5,,68.5
325,2016-09-16,73.5,,73.5
325,2016-09-17,27.5,,27.5
325,2016-09-18,45.625,,45.625
325,2016-09-19,56.25,,56.25
325,2016-09-20,70.29166666666667,,70.29166666666667
325,2016-09-21,68.16666666666667,,68.16666666666667
325,2016-09-22,68.45833333333333,,68.45833333333333
325,2016-09-23,6.666666666666667,,6.666666666666667
325,2016-09-24,55.916666666666664,,55.916666666666664
325,2016-09-25,75.20833333333333,,75.20833333333333
325,2016-09-26,40.541666666666664,,40.541666666666664
325,2016-09-27,70.75,,70.75
325,2016-09-28,62.625,,62.625
325,2016-09-29,12.75,,12.75
325,2016-09-30,39.166666666666664,,39.166666666666664
325,2016-10-01,20.791666666666668,,20.791666666666668
325,2016-10-02,44.125,,44.125
325,2016-10-03,31.0,,31.0
325,2016-10-04,52.708333333333336,,52.708333333333336
325,2016-10-05,63.333333333333336,,63.333333333333336
325,2016-10-06,58.083333333333336,,58.083333333333336
325,2016-10-07,60.708333333333336,,60.708333333333336
325,2016-10-08,20.583333333333332,,20.583333333333332
325,2016-10-09,33.833333333333336,,33.833333333333336
325,2016-10-10,66.08333333333333,,66.08333333333333
325,2016-10-11,54.166666666666664,,54.166666666666664
325,2016-10-12,62.291666666666664,,62.291666666666664
325,2016-10-13,30.125,,30.125
325,2016-10-14,65.41666666666667,,65.41666666666667
325,2016-10-15,61.5,,61.5
325,2016-10-16,26.916666666666668,,26.916666666666668
325,2016-10-17,24.083333333333332,,24.083333333333332
325,2016-10-18,46.166666666666664,,46.166666666666664
325,2016-10-19,59.916666666666664,,59.916666666666664
325,2016-10-20,5.25,,5.25
325,2016-10-21,1.1666666666666667,,1.1666666666666667
325,2016-10-22,13.208333333333334,,13.208333333333334
325,2016-10-23,28.416666666666668,,28.416666666666668
325,2016-10-24,24.083333333333332,,24.083333333333332
325,2016-10-25,43.166666666666664,,43.166666666666664
325,2016-10-26,21.416666666666668,,21.416666666666668
325,2016-10-27,2.5416666666666665,,2.5416666666666665
325,2016-10-28,59.5,,59.5
325,2016-10-29,6.708333333333333,,6.708333333333333
325,2016-10-30,8.5,,8.5
325,2016-10-31,61.583333333333336,,61.583333333333336
325,2016-11-01,48.458333333333336,,48.458333333333336
325,2016-11-02,21.541666666666668,,21.541666666666668
325,2016-11-03,17.583333333333332,,17.583333333333332
325,2016-11-04,59.833333333333336,,59.833333333333336
325,2016-11-05,28.291666666666668,,28.291666666666668
325,2016-11-06,58.0,,58.0
325,2016-11-07,58.833333333333336,,58.833333333333336
325,2016-11-08,38.625,,38.625
325,2016-11-09,14.0,,14.0
325,2016-11-10,51.25,,51.25
325,2016-11-11,27.25,,27.25
325,2016-11-12,55.416666666666664,,55.416666666666664
325,2016-11-13,53.541666666666664,,53.541666666666664
325,2016-11-14,52.666666666666664,,52.666666666666664
325,2016-11-15,44.541666666666664,,44.541666666666664
325,2016-11-16,12.125,,12.125
325,2016-11-17,42.708333333333336,,42.708333333333336
325,2016-11-18,45.416666666666664,,45.416666666666664
325,2016-11-19,24.75,,24.75
325,2016-11-20,9.458333333333334,,9.458333333333334
325,2016-11-21,3.4583333333333335,,3.4583333333333335
325,2016-11-22,10.75,,10.75
325,2016-11-23,23.25,,23.25
325,2016-11-24,1.2916666666666667,,1.2916666666666667
325,2016-11-25,8.791666666666666,,8.791666666666666
325,2016-11-26,9.416666666666666,,9.416666666666666
325,2016-11-27,13.875,,13.875
325,2016-11-28,44.208333333333336,,44.208333333333336
325,2016-11-29,16.083333333333332,,16.083333333333332
325,2016-11-30,5.375,,5.375
325,2016-12-01,16.291666666666668,,16.291666666666668
325,2016-12-02,15.375,,15.375
325,2016-12-03,8.875,,8.875
325,2016-12-04,27.916666666666668,,27.916666666666668
325,2016-12-05,13.958333333333334,,13.958333333333334
325,2016-12-06,18.25,,18.25
325,2016-12-07,17.958333333333332,,17.958333333333332
325,2016-12-08,16.875,,16.875
325,2016-12-09,1.875,,1.875
325,2016-12-10,1.6666666666666667,,1.6666666666666667
325,2016-12-11,2.0416666666666665,,2.0416666666666665
325,2016-12-12,0.5416666666666666,,0.5416666666666666
325,2016-12-13,6.291666666666667,,6.291666666666667
325,2016-12-14,11.75,,11.75
325,2016-12-15,5.083333333333333,,5.083333333333333
325,2016-12-16,0.08333333333333333,,0.08333333333333333
325,2016-12-17,0.0,,0.0
325,2016-12-18,0.9166666666666666,,0.9166666666666666
325,2016-12-19,2.0,,2.0
325,2016-12-20,1.2083333333333333,,1.2083333333333333
325,2016-12-21,2.9583333333333335,,2.9583333333333335
325,2016-12-22,0.2916666666666667,,0.2916666666666667
325,2016-12-23,8.416666666666666,,8.416666666666666
325,2016-12-24,1.6666666666666667,,1.6666666666666667
325,2016-12-25,9.75,,9.75
325,2016-12-26,15.833333333333334,,15.833333333333334
325,2016-12-27,3.6666666666666665,,3.6666666666666665
325,2016-12-28,22.5,,22.5
325,2016-12-29,3.5,,3.5
325,2016-12-30,9.666666666666666,,9.666666666666666
325,2016-12-31,22.541666666666668,,22.541666666666668
325,2017-01-01,39.875,,39.875
325,2017-01-02,2.0416666666666665,,2.0416666666666665
325,2017-01-03,1.2916666666666667,,1.2916666666666667
325,2017-01-04,21.333333333333332,,21.333333333333332
325,2017-01-05,19.583333333333332,,19.583333333333332
325,2017-01-06,6.541666666666667,,6.541666666666667
325,2017-01-07,20.5,,20.5
325,2017-01-08,2.7916666666666665,,2.7916666666666665
325,2017-01-09,7.875,,7.875
325,2017-01-10,1.4583333333333333,,1.4583333333333333
325,2017-01-11,34.208333333333336,,34.208333333333336
325,2017-01-12,2.3333333333333335,,2.3333333333333335
325,2017-01-13,22.583333333333332,,22.583333333333332
325,2017-01-14,8.291666666666666,,8.291666666666666
325,2017-01-15,4.833333333333333,,4.833333333333333
325,2017-01-16,38.208333333333336,,38.208333333333336
325,2017-01-17,0.7916666666666666,,0.7916666666666666
325,2017-01-18,1.2083333333333333,,1.2083333333333333
325,2017-01-19,5.041666666666667,,5.041666666666667
325,2017-01-20,12.166666666666666,,12.166666666666666
325,2017-01-21,19.5,,19.5
325,2017-01-22,10.208333333333334,,10.208333333333334
325,2017-01-23,13.875,,13.875
325,2017-01-24,0.041666666666666664,,0.041666666666666664
325,2017-01-25,0.375,,0.375
325,2017-01-26,15.625,,15.625
325,2017-01-27,23.958333333333332,,23.958333333333332
325,2017-01-28,7.416666666666667,,7.416666666666667
325,2017-01-29,14.083333333333334,,14.083333333333334
325,2017-01-30,17.208333333333332,,17.208333333333332
325,2017-01-31,5.041666666666667,,5.041666666666667
325,2017-02-01,29.791666666666668,,29.791666666666668
325,2017-02-02,1.75,,1.75
325,2017-02-03,8.791666666666666,,8.791666666666666
325,2017-02-04,12.25,,12.25
325,2017-02-05,8.041666666666666,,8.041666666666666
325,2017-02-06,24.375,,24.375
325,2017-02-07,2.5,,2.5
325,2017-02-08,18.833333333333332,,18.833333333333332
325,2017-02-09,17.791666666666668,,17.791666666666668
325,2017-02-10,22.041666666666668,,22.041666666666668
325,2017-02-11,14.083333333333334,,14.083333333333334
325,2017-02-12,2.9583333333333335,,2.9583333333333335
325,2017-02-13,2.625,,2.625
325,2017-02-14,43.125,,43.125
325,2017-02-15,26.5,,26.5
325,2017-02-16,32.875,,32.875
325,2017-02-17,59.333333333333336,,59.333333333333336
325,2017-02-18,62.541666666666664,,62.541666666666664
325,2017-02-19,67.04166666666667,,67.04166666666667
325,2017-02-20,71.0,,71.0
325,2017-02-21,27.416666666666668,,27.416666666666668
325,2017-02-22,41.666666666666664,,41.666666666666664
325,2017-02-23,44.0,,44.0
325,2017-02-24,37.041666666666664,,37.041666666666664
325,2017-02-25,5.166666666666667,,5.166666666666667
325,2017-02-26,44.958333333333336,,44.958333333333336
325,2017-02-27,71.33333333333333,,71.33333333333333
325,2017-02-28,30.833333333333332,,30.833333333333332
325,2017-03-01,27.291666666666668,,27.291666666666668
325,2017-03-02,69.25,,69.25
325,2017-03-03,49.416666666666664,,49.416666666666664
325,2017-03-04,2.5,,2.5
325,2017-03-05,21.625,,21.625
325,2017-03-06,44.583333333333336,,44.583333333333336
325,2017-03-07,15.208333333333334,,15.208333333333334
325,2017-03-08,66.75,,66.75
325,2017-03-09,0.0,,0.0
325,2017-03-10,0.0,,0.0
325,2017-03-11,0.0,,0.0
325,2017-03-12,0.0,,0.0
325,2017-03-13,0.0,,0.0
325,2017-03-14,0.0,,0.0
325,2017-03-15,0.0,,0.0
325,2017-03-16,0.0,,0.0
325,2017-03-17,0.0,,0.0
325,2017-03-18,0.0,,0.0
325,2017-03-19,0.0,,0.0
325,2017-03-20,0.0,,0.0
325,2017-03-21,4.0,,4.0
325,2017-03-22,89.29166666666667,,89.29166666666667
325,2017-03-23,94.125,,94.125
325,2017-03-24,21.291666666666668,,21.291666666666668
325,2017-03-25,10.416666666666666,,10.416666666666666
325,2017-03-26,55.75,,55.75
325,2017-03-27,31.0,,31.0
325,2017-03-28,15.708333333333334,,15.708333333333334
325,2017-03-29,97.66666666666667,,97.66666666666667
325,2017-03-30,34.375,,34.375
325,2017-03-31,13.166666666666666,,13.166666666666666
325,2017-04-01,13.708333333333334,,13.708333333333334
325,2017-04-02,89.25,,89.25
325,2017-04-03,63.208333333333336,,63.208333333333336
325,2017-04-04,34.583333333333336,,34.583333333333336
325,2017-04-05,43.041666666666664,,43.041666666666664
325,2017-04-06,8.458333333333334,,8.458333333333334
325,2017-04-07,5.166666666666667,,5.166666666666667
325,2017-04-08,91.83333333333333,,91.83333333333333
325,2017-04-09,96.66666666666667,,96.66666666666667
325,2017-04-10,74.08333333333333,,74.08333333333333
325,2017-04-11,32.458333333333336,,32.458333333333336
325,2017-04-12,28.208333333333332,,28.208333333333332
325,2017-04-13,86.83333333333333,,86.83333333333333
325,2017-04-14,108.95833333333333,,108.95833333333333
325,2017-04-15,48.416666666666664,,48.416666666666664
325,2017-04-16,81.75,,81.75
325,2017-04-17,109.33333333333333,,109.33333333333333
325,2017-04-18,107.79166666666667,,107.79166666666667
325,2017-04-19,19.041666666666668,,19.041666666666668
325,2017-04-20,21.875,,21.875
325,2017-04-21,64.54166666666667,,64.54166666666667
325,2017-04-22,52.458333333333336,,52.458333333333336
325,2017-04-23,112.0,,112.0
325,2017-04-24,112.08333333333333,,112.08333333333333
325,2017-04-25,50.75,,50.75
325,2017-04-26,86.66666666666667,,86.66666666666667
325,2017-04-27,90.04166666666667,,90.04166666666667
325,2017-04-28,92.16666666666667,,92.16666666666667
325,2017-04-29,30.166666666666668,,30.166666666666668
325,2017-04-30,52.791666666666664,,52.791666666666664
325,2017-05-01,12.25,,12.25
325,2017-05-02,53.416666666666664,,53.416666666666664
325,2017-05-03,98.0,,98.0
325,2017-05-04,34.291666666666664,,34.291666666666664
325,2017-05-05,10.958333333333334,,10.958333333333334
325,2017-05-06,23.0,,23.0
325,2017-05-07,43.25,,43.25
325,2017-05-08,53.875,,53.875
325,2017-05-09,96.75,,96.75
325,2017-05-10,99.95833333333333,,99.95833333333333
325,2017-05-11,77.20833333333333,,77.20833333333333
325,2017-05-12,71.04166666666667,,71.04166666666667
325,2017-05-13,31.875,,31.875
325,2017-05-14,78.83333333333333,,78.83333333333333
325,2017-05-15,112.125,,112.125
325,2017-05-16,63.791666666666664,,63.791666666666664
325,2017-05-17,92.83333333333333,,92.83333333333333
325,2017-05-18,79.0,,79.0
325,2017-05-19,48.958333333333336,,48.958333333333336
325,2017-05-20,120.08333333333333,,120.08333333333333
325,2017-05-21,43.625,,43.625
325,2017-05-22,78.66666666666667,,78.66666666666667
325,2017-05-23,89.875,,89.875
325,2017-05-24,93.58333333333333,,93.58333333333333
325,2017-05-25,24.541666666666668,,24.541666666666668
325,2017-05-26,29.416666666666668,,29.416666666666668
325,2017-05-27,33.875,,33.875
325,2017-05-28,96.625,,96.625
325,2017-05-29,88.625,,88.625
325,2017-05-30,56.916666666666664,,56.916666666666664
325,2017-05-31,97.58333333333333,,97.58333333333333
325,2017-06-01,100.625,,100.625
325,2017-06-02,110.54166666666667,,110.54166666666667
325,2017-06-03,115.70833333333333,,115.70833333333333
325,2017-06-04,33.416666666666664,,33.416666666666664
325,2017-06-05,33.875,,33.875
325,2017-06-06,55.666666666666664,,55.666666666666664
325,2017-06-07,117.75,,117.75
325,2017-06-08,116.41666666666667,,116.41666666666667
325,2017-06-09,114.20833333333333,,114.20833333333333
325,2017-06-10,100.5,,100.5
325,2017-06-11,115.08333333333333,,115.08333333333333
325,2017-06-12,110.33333333333333,,110.33333333333333
325,2017-06-13,58.291666666666664,,58.291666666666664
325,2017-06-14,119.5,,119.5
325,2017-06-15,53.25,,53.25
325,2017-06-16,83.08333333333333,,83.08333333333333
325,2017-06-17,107.625,,107.625
325,2017-06-18,77.20833333333333,,77.20833333333333
325,2017-06-19,51.083333333333336,,51.083333333333336
325,2017-06-20,84.95833333333333,,84.95833333333333
325,2017-06-21,81.875,,81.875
325,2017-06-22,85.375,,85.375
325,2017-06-23,48.0,,48.0
325,2017-06-24,82.91666666666667,,82.91666666666667
325,2017-06-25,90.125,,90.125
325,2017-06-26,83.79166666666667,,83.79166666666667
325,2017-06-27,85.79166666666667,,85.79166666666667
325,2017-06-28,98.70833333333333,,98.70833333333333
325,2017-06-29,38.625,,38.625
325,2017-06-30,55.291666666666664,,55.291666666666664
325,2017-07-01,48.083333333333336,,48.083333333333336
325,2017-07-02,101.41666666666667,,101.41666666666667
325,2017-07-03,104.20833333333333,,104.20833333333333
325,2017-07-04,107.75,,107.75
325,2017-07-05,105.66666666666667,,105.66666666666667
325,2017-07-06,91.25,,91.25
325,2017-07-07,83.5,,83.5
325,2017-07-08,65.41666666666667,,65.41666666666667
325,2017-07-09,100.66666666666667,,100.66666666666667
325,2017-07-10,72.58333333333333,,72.58333333333333
325,2017-07-11,86.29166666666667,,86.29166666666667
325,2017-07-12,54.75,,54.75
325,2017-07-13,24.041666666666668,,24.041666666666668
325,2017-07-14,83.70833333333333,,83.70833333333333
325,2017-07-15,62.083333333333336,,62.083333333333336
325,2017-07-16,100.45833333333333,,100.45833333333333
325,2017-07-17,93.83333333333333,,93.83333333333333
325,2017-07-18,101.41666666666667,,101.41666666666667
325,2017-07-19,85.0,,85.0
325,2017-07-20,62.541666666666664,,62.541666666666664
325,2017-07-21,97.41666666666667,,97.41666666666667
325,2017-07-22,42.0,,42.0